Simultaneous Nadir Overpasses (SNOs) Predictions

Prediction of SNOs between GOES-17 and NOAA-19 Satellite Orbit:

Table of predicted SNOs for the next 14.0 days since TLE Epoch: 2/18/2023
Index Date Time (GOES-17) GOES-17 Lat,Lon NOAA-19 Lat,Lon Distance(km) Time Diff (sec)
1 02/18/2023 03:03:45 -0.01,-104.67 0.93,-100.52 472.72 80
2 02/19/2023 15:33:20 0.00,-104.69 0.82,-108.26 406.86 80
3 02/20/2023 15:21:23 0.01,-104.69 0.15,-105.34 74.08 80
4 02/21/2023 15:12:05 0.01,-104.70 -0.53,-102.43 258.87 80
5 02/24/2023 03:29:45 -0.01,-104.68 -0.61,-107.25 294.01 80
6 02/25/2023 03:20:28 -0.01,-104.68 0.06,-104.34 39.00 80
7 02/26/2023 03:08:30 -0.01,-104.69 0.73,-101.42 371.94 80
8 02/28/2023 15:26:05 -0.00,-104.72 0.37,-106.23 173.04 80
9 03/01/2023 15:16:47 -0.00,-104.72 -0.33,-103.32 160.05 80
10 03/02/2023 15:04:49 0.00,-104.72 -0.97,-100.40 493.17 80
